Wind_Speed
18 19 19 18 17 16 15 15 15 15 15 15 14 13 12 12 13 14 15 16 17 18 18 18 17 17 17 17 16 17 17 17 17 18 18 18 18 19 20 21 23 24
18 18 17 17 17 16 16 16 16 16 16 16 15 14 13 13 13 13 13 14 15 16 18 18 19 19 19 18 18 18 19 19 19 19 19 19 19 19 19 20 21 22
16 16 16 16 16 17 17 17 17 17 17 17 16 16 15 14 14 14 14 14 14 15 17 18 19 19 19 19 19 19 20 21 21 21 20 20 21 21 21 21 22 22
15 14 14 15 15 16 16 17 18 18 18 18 18 17 17 17 16 16 16 16 16 16 17 18 18 19 19 19 19 20 20 21 22 22 22 22 23 23 24 24 24 24
14 13 13 14 15 16 16 17 18 19 19 19 19 19 19 19 19 19 19 19 19 19 19 19 19 19 19 19 20 20 21 22 22 23 23 23 24 25 25 26 26 26
15 14 13 14 15 16 17 18 18 19 19 19 19 19 19 19 20 20 21 21 21 21 21 20 20 20 20 20 20 21 22 23 24 25 25 25 25 26 27 28 28 28
16 15 14 15 16 17 18 18 19 20 20 19 19 19 19 19 20 21 21 22 22 22 22 22 22 22 22 22 22 22 23 25 26 27 28 28 28 29 29 29 30 29
18 17 16 17 18 18 19 19 21 22 21 20 19 20 20 20 21 21 22 22 22 23 23 23 23 23 23 23 23 24 25 25 27 28 29 31 32 32 32 33 32 31
20 19 19 19 19 20 20 21 22 23 22 21 20 20 21 21 22 22 22 23 23 24 24 24 24 24 24 24 24 25 25 26 27 28 29 31 33 34 35 36 36 35
22 21 21 20 21 22 22 22 23 24 23 22 22 22 22 22 23 23 23 24 24 25 25 25 25 25 26 26 27 27 28 28 29 30 30 31 32 34 36 37 38 37
25 23 22 21 22 23 23 24 24 25 24 24 23 23 23 24 24 24 25 25 25 26 26 26 26 27 28 29 29 30 30 31 31 32 32 32 33 34 35 37 38 38
27 25 22 22 23 24 25 25 25 25 25 25 25 24 25 25 25 26 26 26 26 26 26 27 28 29 30 31 32 33 33 34 34 35 34 34 34 34 35 36 38 39
28 26 24 23 24 25 26 26 26 27 27 26 26 26 26 27 27 27 27 27 27 27 27 28 29 31 32 33 34 35 37 38 38 38 38 37 36 36 36 37 38 39
29 28 26 26 26 26 27 27 28 28 29 28 28 28 28 29 29 29 29 28 28 28 29 30 31 32 34 35 36 38 40 41 41 41 40 39 38 37 37 37 38 39
30 30 28 28 28 27 27 28 29 30 30 30 30 30 30 30 30 30 30 30 29 30 30 31 32 34 35 37 39 41 42 42 42 41 40 40 39 38 37 37 38 39
30 30 29 28 28 27 27 28 29 31 32 32 32 32 32 32 32 32 32 31 31 31 32 33 35 36 37 39 41 42 42 42 42 42 41 40 40 39 38 38 38 39
36 32 28 27 26 25 26 28 30 31 32 33 33 33 33 33 32 33 33 33 34 34 34 36 37 38 40 41 41 42 42 43 43 43 42 42 41 40 40 39 39 39
39 35 28 24 23 25 27 30 31 32 33 33 33 34 33 33 33 34 35 36 36 37 37 38 40 41 42 42 42 42 43 43 44 44 43 43 42 42 41 41 40 40
37 34 27 23 23 26 30 31 32 32 33 33 34 33 32 33 34 35 36 37 38 39 40 41 42 42 42 43 43 43 43 44 44 44 44 44 43 42 42 42 42 42
37 34 29 26 25 28 31 32 32 33 33 34 33 33 33 33 34 35 36 38 39 40 41 42 42 42 42 43 43 43 43 44 44 45 45 44 44 43 42 42 42 43
41 38 33 29 27 27 30 31 32 33 34 34 34 33 33 34 34 35 36 38 39 41 42 42 41 41 41 42 42 43 43 44 45 46 46 45 44 43 43 43 43 43
41 38 31 27 26 26 28 30 32 33 34 33 32 32 32 33 34 35 36 38 39 40 40 41 41 41 41 42 42 43 44 45 46 47 47 46 45 44 44 44 44 44
35 31 24 22 24 25 27 29 31 32 31 29 29 30 32 34 34 35 36 36 38 38 40 40 40 40 40 41 41 42 44 46 47 47 48 48 47 46 46 46 46 46
33 27 20 20 23 25 26 28 28 28 27 27 28 31 33 33 34 34 35 36 37 38 40 40 40 39 39 39 40 42 43 45 47 48 49 49 49 49 48 48 49 49
31 24 20 21 24 25 25 25 25 25 25 27 28 30 32 33 34 34 35 36 37 38 38 39 38 38 38 39 40 41 43 45 47 49 50 51 51 51 51 51 52 52
23 19 19 22 24 25 24 25 25 25 25 25 27 29 32 33 34 34 34 34 35 35 35 35 36 37 37 39 40 42 43 45 47 50 51 52 52 53 54 54 54 55
Wind_Direction
269 276 282 285 287 288 290 292 293 293 291 288 284 279 272 264 259 256 255 256 258 259 261 263 264 267 269 271 271 270 267 264 262 262 262 263 262 260 259 258 257 256
268 276 282 286 290 293 296 299 300 299 295 293 291 287 281 277 273 270 267 264 262 260 260 260 260 261 262 265 267 270 272 271 269 266 264 263 263 262 261 260 260 260
268 277 284 289 292 295 300 303 304 302 299 298 297 295 292 289 287 286 281 276 270 266 264 263 263 263 263 263 263 265 267 268 269 267 265 264 263 263 263 262 262 262
269 276 281 287 291 294 298 303 305 304 302 301 299 298 297 295 294 291 288 284 280 276 273 271 271 270 270 270 269 267 266 265 266 265 264 263 263 264 264 264 264 264
268 274 277 281 285 289 294 299 303 303 302 301 299 297 296 295 295 293 290 288 286 283 282 280 279 279 279 279 278 277 274 271 270 267 265 264 264 265 265 265 265 265
270 276 275 277 281 286 292 296 299 301 301 299 297 295 294 292 291 291 290 289 289 288 288 287 287 286 286 285 284 283 281 279 277 275 273 270 268 267 266 267 267 267
276 278 273 274 279 284 289 294 297 298 297 296 294 291 290 289 288 287 288 289 290 291 291 290 290 290 289 289 287 285 284 282 281 279 279 277 275 273 271 269 268 267
277 277 273 273 278 282 285 290 294 295 294 292 290 288 287 286 286 286 287 289 290 291 291 291 291 291 291 290 289 289 287 285 283 280 279 278 277 276 275 273 271 269
275 275 274 275 278 280 283 288 292 293 292 290 287 285 285 284 285 286 287 287 288 289 289 290 290 290 290 289 290 290 290 289 287 284 280 277 275 274 273 273 273 272
269 271 274 277 279 279 282 287 290 291 291 290 288 285 283 283 284 285 285 285 286 286 287 287 287 288 288 289 290 290 290 290 289 287 284 280 276 273 271 271 270 271
263 266 272 275 277 278 280 285 288 291 291 290 289 286 283 283 283 283 283 283 283 283 284 284 285 286 288 289 290 291 291 292 291 290 287 284 280 275 272 270 269 268
258 261 264 267 270 272 275 281 285 289 291 290 288 286 284 283 282 281 281 280 281 281 282 284 285 287 288 289 291 293 294 295 295 293 291 287 284 279 275 271 269 267
253 256 256 256 260 264 268 275 281 284 288 289 288 286 285 283 281 281 280 279 280 281 282 284 285 287 288 290 292 294 296 296 296 294 292 289 286 282 278 274 270 268
246 247 248 249 253 259 265 270 275 280 284 287 287 286 283 282 280 279 278 278 279 280 282 284 286 288 290 292 294 296 296 296 296 294 292 289 286 283 280 277 274 271
245 241 243 247 253 259 264 268 271 276 281 284 284 283 281 279 279 278 278 278 279 281 283 285 287 288 290 292 294 295 295 295 295 294 293 290 287 284 281 278 276 273
242 240 242 249 256 261 262 265 269 273 277 279 279 279 278 277 278 278 279 280 282 283 285 285 286 287 288 290 292 293 294 295 295 294 293 290 288 285 282 279 277 275
240 238 243 249 256 261 264 266 268 270 273 275 276 276 276 277 278 280 281 282 283 284 284 284 285 286 287 289 291 293 293 294 293 293 292 290 288 285 282 280 278 276
246 241 243 247 254 264 268 269 269 270 271 273 274 275 276 277 279 280 281 282 283 284 284 284 284 286 289 291 292 292 292 291 291 291 290 289 288 286 284 281 279 277
251 241 238 244 257 267 271 271 270 271 272 273 274 276 277 278 279 280 281 282 284 285 285 286 288 290 292 293 292 291 291 291 290 290 289 288 287 285 283 281 280 279
253 242 236 242 255 265 269 271 271 272 274 275 276 277 278 279 280 281 283 284 286 287 288 289 291 292 293 292 291 291 291 290 289 289 287 286 284 283 281 280 279 278
247 239 234 237 246 258 265 268 271 273 275 276 277 278 280 282 283 284 285 287 287 288 289 291 292 293 293 293 293 292 292 291 289 288 286 284 283 281 280 279 278 277
230 227 228 234 241 252 261 265 270 273 274 275 278 280 282 283 284 284 285 286 287 289 291 293 294 295 295 294 294 293 292 291 289 287 286 284 283 281 280 280 280 279
220 222 230 240 244 251 257 262 267 270 273 277 280 281 282 282 283 285 287 289 292 294 295 296 296 295 294 294 294 293 291 290 289 287 286 285 284 283 282 282 281 281
235 232 239 246 247 251 255 258 264 269 274 279 280 280 282 284 287 291 294 296 298 297 297 296 295 295 295 294 294 293 291 289 288 287 286 286 285 284 284 283 282 282
236 231 237 246 250 254 257 260 266 271 275 278 279 282 287 290 292 295 296 297 296 295 295 295 295 296 297 296 295 293 292 290 289 288 287 286 286 285 284 284 283 282
226 231 241 250 254 256 259 264 271 277 280 283 286 289 291 292 293 294 294 293 293 293 295 296 297 298 298 297 296 294 293 292 290 289 288 287 287 286 285 284 284 284
Height
3114 3114 3114 3114 3113 3113 3113 3113 3113 3112 3112 3111 3112 3112 3113 3113 3113 3113 3114 3114 3114 3114 3113 3113 3114 3114 3114 3114 3114 3115 3115 3115 3115 3114 3114 3114 3114 3114 3115 3115 3115 3116
3112 3112 3112 3111 3111 3111 3110 3110 3110 3109 3109 3109 3109 3109 3110 3110 3110 3110 3111 3111 3111 3111 3111 3111 3111 3111 3112 3112 3112 3112 3112 3112 3112 3112 3112 3112 3112 3112 3112 3112 3112 3112
3110 3110 3110 3109 3109 3108 3108 3108 3107 3107 3107 3106 3106 3106 3106 3106 3107 3107 3107 3108 3108 3108 3108 3108 3108 3108 3109 3109 3110 3110 3110 3110 3110 3110 3110 3109 3109 3109 3109 3108 3108 3109
3108 3108 3108 3107 3107 3107 3106 3106 3105 3105 3104 3104 3104 3103 3103 3103 3103 3104 3104 3104 3104 3104 3104 3105 3105 3105 3106 3106 3107 3107 3107 3107 3107 3107 3107 3107 3106 3106 3106 3105 3105 3105
3106 3106 3106 3106 3106 3105 3105 3104 3104 3103 3103 3102 3102 3101 3101 3100 3100 3100 3100 3100 3101 3101 3101 3101 3101 3102 3102 3103 3103 3103 3103 3103 3103 3103 3103 3103 3103 3102 3102 3102 3102 3102
3104 3104 3104 3104 3104 3104 3103 3103 3102 3102 3101 3101 3100 3100 3099 3099 3098 3097 3097 3097 3097 3097 3097 3098 3098 3098 3099 3099 3099 3099 3099 3099 3099 3099 3099 3099 3099 3099 3098 3098 3098 3098
3102 3102 3102 3102 3102 3102 3102 3101 3101 3100 3100 3099 3099 3098 3098 3097 3096 3095 3095 3094 3094 3094 3094 3094 3094 3095 3095 3095 3095 3095 3095 3095 3095 3094 3095 3095 3095 3095 3094 3094 3093 3094
3100 3100 3100 3100 3100 3100 3100 3099 3099 3098 3098 3098 3097 3096 3096 3095 3094 3094 3093 3093 3092 3092 3091 3091 3091 3091 3092 3092 3092 3092 3092 3092 3091 3091 3091 3090 3090 3090 3089 3089 3088 3089
3098 3098 3097 3097 3098 3098 3097 3097 3097 3096 3096 3096 3095 3094 3093 3093 3092 3091 3091 3090 3090 3089 3089 3088 3088 3088 3088 3089 3089 3089 3088 3088 3088 3087 3087 3087 3086 3086 3085 3084 3083 3084
3096 3096 3095 3095 3096 3096 3095 3095 3094 3094 3094 3093 3092 3092 3091 3090 3089 3089 3088 3087 3087 3086 3086 3085 3085 3085 3085 3085 3085 3085 3085 3085 3084 3083 3083 3083 3082 3081 3080 3080 3079 3079
3093 3093 3093 3093 3094 3093 3093 3092 3092 3091 3091 3090 3089 3089 3088 3087 3086 3085 3085 3084 3083 3083 3082 3082 3082 3081 3081 3081 3081 3081 3080 3080 3079 3079 3078 3078 3077 3077 3076 3075 3074 3074
3091 3091 3091 3091 3091 3091 3091 3090 3090 3089 3089 3087 3087 3086 3085 3084 3083 3082 3081 3081 3080 3080 3079 3079 3078 3078 3077 3077 3076 3076 3075 3075 3074 3073 3073 3072 3072 3071 3071 3070 3069 3069
3089 3089 3089 3089 3089 3089 3088 3088 3087 3087 3086 3085 3084 3082 3081 3080 3079 3079 3078 3077 3077 3076 3076 3075 3075 3074 3073 3073 3072 3071 3070 3069 3069 3068 3067 3066 3066 3065 3065 3064 3064 3063
3086 3086 3086 3086 3086 3086 3085 3085 3084 3084 3083 3082 3081 3079 3078 3077 3076 3075 3074 3074 3073 3073 3072 3072 3071 3070 3069 3068 3067 3066 3065 3064 3063 3062 3061 3060 3060 3059 3059 3058 3058 3057
3082 3083 3084 3083 3083 3083 3082 3081 3081 3080 3080 3079 3077 3076 3074 3073 3072 3071 3071 3070 3070 3069 3068 3068 3067 3066 3065 3064 3062 3061 3060 3058 3057 3056 3055 3054 3054 3053 3053 3052 3052 3051
3078 3079 3080 3080 3080 3080 3079 3078 3077 3076 3076 3075 3073 3072 3071 3069 3068 3067 3067 3066 3065 3065 3064 3063 3062 3061 3060 3059 3058 3056 3054 3053 3052 3051 3050 3048 3048 3047 3047 3046 3046 3045
3072 3074 3075 3076 3076 3076 3075 3074 3073 3072 3072 3071 3069 3068 3067 3065 3064 3063 3062 3062 3061 3060 3059 3058 3057 3056 3055 3054 3052 3050 3049 3047 3046 3045 3044 3043 3042 3041 3041 3040 3040 3039
3066 3068 3070 3070 3071 3071 3071 3070 3069 3068 3067 3066 3065 3064 3063 3062 3061 3059 3058 3057 3057 3056 3055 3053 3052 3051 3050 3048 3047 3045 3043 3041 3040 3039 3038 3037 3036 3034 3034 3034 3033 3033
3060 3063 3064 3065 3066 3067 3067 3065 3065 3064 3063 3062 3061 3060 3059 3058 3057 3055 3054 3053 3052 3050 3049 3048 3046 3045 3044 3043 3041 3039 3037 3035 3033 3032 3031 3031 3030 3028 3028 3027 3026 3026
3055 3056 3057 3059 3061 3062 3062 3061 3060 3060 3058 3058 3057 3056 3055 3054 3053 3051 3049 3048 3046 3045 3043 3042 3041 3040 3038 3036 3035 3033 3031 3029 3027 3025 3025 3024 3023 3022 3021 3020 3020 3019
3048 3049 3050 3052 3054 3056 3056 3056 3056 3055 3054 3053 3053 3052 3051 3050 3048 3046 3044 3043 3041 3040 3038 3037 3036 3034 3032 3030 3028 3026 3024 3022 3020 3019 3018 3017 3016 3015 3014 3014 3013 3013
3040 3041 3043 3046 3048 3050 3051 3052 3051 3051 3050 3049 3049 3048 3047 3046 3044 3042 3040 3038 3037 3035 3033 3032 3030 3028 3026 3024 3022 3020 3018 3016 3014 3012 3011 3010 3009 3009 3008 3007 3006 3006
3035 3037 3039 3041 3043 3045 3046 3046 3047 3046 3046 3046 3045 3044 3043 3041 3039 3038 3036 3034 3032 3030 3028 3026 3025 3023 3021 3018 3016 3013 3011 3009 3007 3005 3004 3002 3002 3001 3000 3000 2999 2998
3034 3035 3037 3038 3040 3041 3041 3042 3042 3042 3042 3042 3041 3040 3038 3036 3035 3033 3030 3028 3026 3025 3023 3021 3020 3018 3015 3013 3010 3008 3005 3003 3001 2999 2997 2996 2995 2994 2993 2992 2990 2990
3031 3032 3034 3035 3037 3038 3038 3038 3039 3039 3039 3038 3037 3035 3033 3031 3029 3028 3026 3024 3022 3021 3019 3017 3014 3012 3010 3007 3005 3003 3000 2997 2995 2992 2990 2989 2987 2986 2984 2983 2982 2981
3028 3030 3031 3033 3034 3035 3035 3035 3035 3035 3034 3033 3032 3030 3028 3026 3025 3023 3022 3020 3019 3017 3015 3012 3009 3007 3005 3002 3000 2997 2994 2992 2989 2986 2984 2981 2980 2978 2976 2974 2973 2971